SCP
0 -0 -0 -0 1 2 1 3 3 1 2 1 1 0 0 1 1 0 0 0 0 0 0 0 0 0 0 0 0 0 0 0 0 0 0 0 0 0 0 0 0 0 0
-0 -0 -0 -0 1 1 1 2 1 0 3 2 2 1 1 1 1 1 0 0 0 0 0 0 0 0 0 0 0 0 0 0 0 0 0 0 0 0 0 0 0 0 0
-0 -0 -0 -0 1 3 2 1 0 0 1 3 2 2 2 3 2 1 1 1 0 0 0 0 0 0 0 0 0 0 0 0 0 0 0 0 0 0 0 0 0 0 0
0 0 -0 -0 0 2 2 1 2 2 2 2 3 2 1 3 2 2 0 0 0 0 0 0 0 0 0 0 0 0 0 0 0 0 0 0 0 0 0 0 0 0 0
-0 0 0 0 0 3 4 2 1 1 0 0 1 1 1 3 1 0 0 0 0 0 0 0 0 0 0 0 0 0 0 0 0 0 0 0 0 0 0 0 0 0 0
-0 -0 0 0 0 0 5 6 3 2 0 0 0 0 2 2 1 0 0 0 0 0 0 0 0 0 0 0 0 0 0 0 0 0 0 0 0 0 0 0 0 0 0
0 -0 0 0 0 1 4 6 4 3 1 0 0 1 1 1 0 0 0 0 0 0 0 0 0 0 0 0 0 0 0 0 0 0 0 0 0 0 0 0 0 0 0
0 0 -0 0 0 1 5 6 5 5 4 2 2 1 0 2 1 0 0 0 0 0 0 0 0 0 0 0 0 0 0 0 0 0 0 0 0 0 0 0 0 0 0
0 0 0 -0 0 0 3 8 6 7 4 3 3 1 1 2 1 0 0 0 0 0 -0 0 0 0 0 0 0 0 0 0 0 0 0 0 0 0 0 0 0 0 0
0 0 0 -0 0 0 4 9 8 6 4 3 3 1 0 1 0 0 0 0 0 0 0 0 0 0 0 0 0 0 0 0 0 0 0 0 0 0 0 0 0 0 0
0 0 0 0 0 2 8 9 9 6 5 3 2 2 1 0 0 0 0 0 0 0 0 0 0 0 0 0 0 0 0 0 0 0 0 0 0 0 0 0 0 0 0
0 0 0 0 2 3 6 7 9 7 5 2 1 1 0 0 0 0 0 0 0 0 0 0 0 0 0 0 0 0 0 0 0 0 0 0 0 0 0 0 0 0 0
0 0 -0 -0 1 4 6 6 6 5 3 2 0 0 0 0 0 0 0 0 0 0 0 0 0 0 0 0 0 0 0 0 0 0 0 0 0 0 0 0 0 0 0
0 0 -0 -0 0 2 4 4 4 2 2 0 0 0 0 0 0 0 0 0 0 0 -0 0 0 0 0 0 0 0 0 0 0 0 0 0 0 0 0 0 0 0 0
0 0 -0 -0 0 3 4 3 2 1 0 0 0 0 0 0 0 0 0 0 -0 -0 0 0 0 0 0 0 0 0 0 0 0 0 0 0 0 0 0 0 0 0 0
0 -0 -1 1 2 3 3 2 0 0 0 0 0 0 0 0 0 0 0 -0 -0 0 0 0 0 0 0 0 0 0 0 0 0 0 0 0 0 0 0 0 0 0 0
0 1 1 1 1 1 0 0 0 0 0 0 0 0 0 0 0 0 0 -0 -0 0 0 0 0 0 0 0 0 0 0 0 0 0 0 0 0 0 0 0 0 0 0
0 1 2 1 0 0 0 0 0 0 0 0 0 0 0 0 0 0 -0 -0 -0 0 0 0 0 0 0 0 0 0 0 0 0 0 0 0 0 0 0 0 0 0 0
0 1 0 0 0 0 0 0 0 0 0 0 0 0 0 0 0 0 -0 -0 0 0 0 0 0 0 0 0 0 0 0 0 0 0 0 0 0 0 0 0 0 0 0
0 0 0 0 0 0 0 0 0 0 0 0 0 0 0 0 0 -0 -0 0 0 0 0 0 0 0 0 0 0 0 0 0 0 0 0 0 0 0 0 0 0 0 0
0 0 0 0 0 0 0 -0 -0 -0 0 0 0 0 0 0 0 0 0 0 0 0 0 0 0 0 0 0 0 0 0 0 0 0 0 0 0 0 0 0 0 0 0
0 0 0 0 0 0 0 0 0 0 0 0 0 0 0 0 0 0 0 0 0 -0 0 0 0 0 0 0 0 0 0 0 0 0 0 0 0 0 0 0 0 0 0
0 0 0 0 0 0 0 0 0 0 0 0 0 0 0 0 0 0 0 0 -0 -0 0 0 0 0 0 0 0 0 0 0 0 0 0 0 0 0 0 0 0 0 0
0 0 0 0 0 0 0 0 0 0 0 0 0 0 0 0 0 0 -0 -0 -0 -0 -0 -0 0 0 0 0 0 0 0 0 0 0 0 0 0 0 0 0 0 0 0
0 0 0 0 0 0 0 0 0 0 0 0 0 0 0 0 -0 -0 -0 -0 -0 -0 -0 0 0 0 0 0 0 0 0 0 0 0 0 0 0 0 0 0 0 0 0
0 0 0 0 0 0 0 0 0 0 0 0 0 0 0 -0 -0 -0 -0 -0 -0 -0 -0 0 0 0 0 0 0 0 0 0 0 0 0 0 0 0 0 0 0 0 0
Wind_Speed_500mb
75 69 70 48 22 35 65 84 68 78 97 76 60 59 53 41 43 35 26 20 29 33 27 31 20 17 25 30 31 32 29 24 27 23 8 10 8 12 15 19 22 34 37
60 60 65 40 24 39 60 86 81 99 78 64 67 69 49 39 35 35 32 25 32 34 32 29 23 21 22 26 24 19 15 11 3 9 10 5 5 9 27 18 30 39 33
70 59 53 54 35 52 67 74 89 87 76 93 76 59 46 38 45 49 44 38 36 39 33 32 28 21 20 18 14 4 7 8 8 10 8 4 4 24 10 28 25 37 33
64 71 58 54 56 52 63 81 83 72 87 85 82 47 61 61 51 52 55 44 38 35 28 27 27 23 19 14 7 15 11 7 4 7 8 6 10 9 17 20 33 37 29
78 71 69 63 58 50 65 69 76 76 88 89 99 87 75 71 64 58 48 41 39 32 23 18 21 19 12 14 15 11 8 4 6 6 4 3 3 10 12 27 46 38 35
68 79 71 74 63 59 61 77 76 80 89 84 73 70 85 74 68 62 50 43 36 29 28 24 23 17 18 17 12 7 5 4 8 12 13 13 14 17 15 24 38 43 44
75 67 81 71 74 58 62 79 86 86 80 75 67 80 86 62 66 55 47 45 45 42 33 24 27 22 21 17 9 4 4 8 12 14 15 15 16 17 20 27 35 43 46
65 71 70 68 77 59 66 81 93 99 97 91 82 81 81 66 60 56 41 47 55 39 33 36 31 28 20 12 8 4 7 12 17 16 16 17 21 21 27 30 32 39 39
71 73 68 77 72 72 73 92 90 99 94 89 76 82 78 78 82 73 60 54 51 45 43 35 34 29 20 13 9 9 10 15 21 22 22 24 24 26 28 29 32 34 22
58 56 31 64 72 74 85 95 94 101 97 87 82 84 92 80 83 77 72 43 62 52 45 42 32 26 20 14 10 13 18 19 21 23 21 24 29 29 31 34 35 37 38
31 31 24 23 64 79 98 104 103 101 96 86 103 90 93 102 90 82 71 73 58 51 47 38 32 26 21 16 13 19 22 19 21 20 23 27 30 32 34 36 39 40 42
36 59 40 40 49 75 85 100 97 104 96 89 95 94 102 97 90 87 84 65 62 51 45 38 34 29 24 21 21 21 22 19 22 24 24 29 32 35 37 38 39 40 38
28 55 54 39 39 79 80 87 90 94 90 86 100 114 110 98 88 88 73 72 61 54 44 38 36 31 27 23 22 19 22 23 22 22 26 31 33 36 37 37 38 39 41
26 34 44 46 39 82 76 74 77 85 83 92 102 109 105 91 87 82 79 68 62 53 44 41 36 33 31 30 27 22 25 22 18 23 31 36 37 38 38 39 38 39 41
17 38 52 52 45 76 75 75 77 83 93 101 103 100 91 96 89 83 76 73 59 46 44 41 38 36 31 29 23 20 20 18 19 25 32 35 38 39 39 39 37 36 38
47 42 37 42 61 66 71 74 82 88 98 108 106 101 104 93 77 77 74 62 53 50 43 41 40 37 33 26 18 18 18 17 22 27 29 30 34 34 35 33 32 33 35
39 19 43 67 69 76 76 83 98 107 112 112 111 111 100 91 84 77 67 62 59 54 52 48 40 36 34 23 17 12 12 17 24 29 31 32 34 35 37 33 29 27 28
26 38 75 84 88 99 103 93 94 108 118 120 114 111 89 89 82 73 67 69 65 58 51 46 39 36 33 19 12 7 12 20 28 31 35 36 37 41 44 41 31 28 30
16 62 94 113 115 130 126 107 105 112 118 113 93 84 100 93 81 77 77 71 66 60 51 45 39 34 31 19 15 10 16 23 29 31 36 38 40 43 44 40 38 36 33
17 59 109 126 129 125 106 106 102 99 87 83 92 95 95 84 80 82 77 72 64 59 54 49 41 36 35 26 19 17 17 26 27 32 34 35 37 39 41 39 42 44 42
69 100 120 128 125 125 130 121 113 97 103 99 93 84 80 83 84 77 71 67 62 58 52 47 43 38 34 31 27 22 24 27 29 30 31 32 34 38 37 36 40 40 32
115 108 111 125 128 126 133 128 114 106 98 95 91 86 83 79 77 79 73 63 57 54 53 50 48 43 37 35 32 25 26 27 27 29 30 31 32 34 35 36 36 34 34
104 104 111 126 104 112 119 113 106 104 105 100 98 94 90 85 79 75 68 61 57 57 56 51 52 48 41 38 31 24 24 24 28 32 33 33 34 36 37 37 40 42 44
107 111 115 115 105 101 102 99 102 104 103 104 99 95 94 88 79 70 60 55 54 56 55 53 52 47 42 35 25 22 21 24 31 30 32 40 45 46 42 40 46 49 50
112 105 111 113 110 116 114 108 102 101 104 99 99 95 88 77 73 66 56 54 53 46 53 51 45 41 41 32 24 22 25 31 32 32 40 48 54 54 52 51 51 52 50
113 102 109 112 108 111 107 102 100 99 104 109 101 93 89 86 77 72 75 63 59 52 47 45 40 44 36 25 26 28 32 31 33 44 53 59 62 61 58 57 54 55 54
Wind_Direction_500mb
281 281 274 290 262 206 197 202 196 194 200 208 200 190 185 180 181 178 182 193 196 203 217 201 220 240 246 259 266 270 279 290 301 319 78 34 31 192 321 304 300 320 333
291 282 275 269 225 200 190 191 180 183 185 213 213 199 186 180 174 185 197 200 198 201 207 213 220 240 258 269 270 277 285 282 18 52 21 46 108 199 302 288 308 335 340
275 283 289 264 242 201 201 199 181 182 192 198 198 196 189 179 189 201 199 192 197 202 212 218 231 253 265 271 288 273 158 117 63 27 26 321 262 307 235 296 315 343 349
277 275 276 276 254 208 208 207 210 211 205 190 187 214 196 188 198 200 193 188 200 201 213 221 239 261 275 276 177 138 115 91 29 354 4 4 317 322 314 316 329 349 353
272 275 270 268 265 232 205 208 204 193 189 198 207 214 212 193 180 186 186 196 195 199 207 220 236 258 240 173 155 131 106 69 10 336 351 333 294 325 324 322 337 351 1
267 265 268 260 259 256 213 202 207 202 205 207 184 182 208 179 170 187 185 195 200 194 190 208 234 208 173 154 140 126 100 54 15 12 11 17 23 9 360 341 340 347 355
262 264 263 258 251 258 228 207 201 203 205 200 194 200 199 163 173 180 182 218 210 202 195 208 201 162 147 147 150 171 87 63 39 38 37 28 22 12 359 355 353 349 346
257 256 256 263 255 254 233 210 201 202 199 202 201 199 191 208 187 174 196 216 221 196 200 188 171 155 146 160 164 130 65 49 57 56 51 41 41 19 9 4 355 351 352
248 256 257 258 257 249 230 219 205 203 205 202 198 199 199 182 175 176 174 208 209 191 181 175 159 148 149 157 144 105 77 66 62 60 58 53 46 27 18 10 5 1 346
253 236 247 252 250 250 232 218 210 199 201 201 202 190 172 175 185 178 182 194 192 179 165 159 151 147 150 148 124 97 81 72 75 73 61 50 39 26 18 13 3 357 354
245 197 238 288 244 239 221 212 204 200 194 193 179 182 189 185 181 185 190 178 177 164 159 155 150 148 141 128 119 94 87 85 87 74 50 42 31 17 10 5 356 352 351
240 203 258 300 248 212 213 205 193 191 192 189 180 177 186 190 188 190 175 170 158 157 154 149 146 144 139 120 102 99 104 96 77 61 47 35 20 11 8 2 354 350 356
249 187 244 294 231 209 208 198 190 184 185 188 183 179 186 187 184 168 162 158 156 158 149 149 146 138 124 110 99 112 101 84 69 51 34 24 14 10 9 3 355 351 355
222 206 260 278 249 204 201 194 189 192 186 188 183 180 185 182 166 159 157 155 157 149 148 145 134 124 115 107 110 99 86 79 73 46 26 18 12 13 11 7 1 358 2
273 253 283 268 225 210 191 183 189 192 182 177 174 172 166 156 154 154 152 151 148 147 148 140 131 125 116 108 106 93 87 78 53 35 22 16 17 16 14 12 10 5 3
318 312 286 194 192 192 178 176 176 173 179 177 168 162 152 151 154 155 154 143 146 149 145 139 136 129 119 114 104 88 80 59 35 26 24 15 13 10 15 13 12 10 8
309 273 167 163 169 168 162 156 150 149 154 152 153 151 148 149 154 154 144 145 146 144 140 136 133 126 120 117 105 83 65 40 29 24 25 21 18 10 16 14 8 10 16
264 164 126 132 142 136 133 141 153 139 147 134 135 140 137 151 152 148 145 143 139 139 135 131 129 126 119 119 109 90 57 39 35 30 30 22 13 9 10 12 14 15 14
175 133 128 128 127 124 134 128 122 127 127 131 131 142 154 152 147 147 143 140 137 134 133 129 131 126 121 116 106 80 48 47 46 39 32 24 14 15 16 13 20 21 26
178 133 124 126 125 129 130 124 125 113 119 132 145 153 153 147 148 145 140 136 133 131 129 128 123 120 114 115 102 78 71 58 48 39 30 23 20 22 20 19 21 25 27
142 128 124 127 130 133 139 137 138 135 148 149 151 154 148 147 147 139 135 135 132 129 126 123 117 110 105 100 91 87 64 54 45 36 28 23 21 24 27 31 31 28 24
133 129 128 129 134 136 137 138 142 146 145 149 148 144 143 141 139 136 133 128 125 124 123 118 110 103 98 96 90 70 55 44 39 38 34 30 28 31 34 37 41 35 34
127 127 127 132 136 141 142 138 139 146 147 145 144 144 140 137 136 132 127 123 124 121 116 113 107 104 104 92 82 64 53 48 47 48 47 44 41 41 43 44 41 38 38
124 129 131 129 128 141 147 144 145 149 146 143 140 138 138 138 135 126 120 120 121 116 113 112 111 110 95 84 76 66 56 59 55 54 55 52 49 46 49 46 42 42 39
121 118 115 118 125 141 143 150 151 150 144 139 137 139 136 135 131 126 119 115 110 112 114 112 102 98 90 82 80 74 62 52 53 56 54 49 46 46 48 46 41 41 41
122 118 130 134 138 143 141 144 149 148 143 140 142 142 143 142 139 130 121 114 114 114 105 104 97 94 91 96 85 76 71 64 59 56 52 49 46 46 45 43 39 37 39
Wind_Speed_850mb
75 69 70 48 22 35 65 84 68 78 97 76 60 59 53 41 43 35 26 20 29 33 27 31 20 17 25 30 31 32 29 24 27 23 8 10 8 12 15 19 22 34 37
60 60 65 40 24 39 60 86 81 99 78 64 67 69 49 39 35 35 32 25 32 34 32 29 23 21 22 26 24 19 15 11 3 9 10 5 5 9 27 18 30 39 33
70 59 53 54 35 52 67 74 89 87 76 93 76 59 46 38 45 49 44 38 36 39 33 32 28 21 20 18 14 4 7 8 8 10 8 4 4 24 10 28 25 37 33
64 71 58 54 56 52 63 81 83 72 87 85 82 47 61 61 51 52 55 44 38 35 28 27 27 23 19 14 7 15 11 7 4 7 8 6 10 9 17 20 33 37 29
78 71 69 63 58 50 65 69 76 76 88 89 99 87 75 71 64 58 48 41 39 32 23 18 21 19 12 14 15 11 8 4 6 6 4 3 3 10 12 27 46 38 35
68 79 71 74 63 59 61 77 76 80 89 84 73 70 85 74 68 62 50 43 36 29 28 24 23 17 18 17 12 7 5 4 8 12 13 13 14 17 15 24 38 43 44
75 67 81 71 74 58 62 79 86 86 80 75 67 80 86 62 66 55 47 45 45 42 33 24 27 22 21 17 9 4 4 8 12 14 15 15 16 17 20 27 35 43 46
65 71 70 68 77 59 66 81 93 99 97 91 82 81 81 66 60 56 41 47 55 39 33 36 31 28 20 12 8 4 7 12 17 16 16 17 21 21 27 30 32 39 39
71 73 68 77 72 72 73 92 90 99 94 89 76 82 78 78 82 73 60 54 51 45 43 35 34 29 20 13 9 9 10 15 21 22 22 24 24 26 28 29 32 34 22
58 56 31 64 72 74 85 95 94 101 97 87 82 84 92 80 83 77 72 43 62 52 45 42 32 26 20 14 10 13 18 19 21 23 21 24 29 29 31 34 35 37 38
31 31 24 23 64 79 98 104 103 101 96 86 103 90 93 102 90 82 71 73 58 51 47 38 32 26 21 16 13 19 22 19 21 20 23 27 30 32 34 36 39 40 42
36 59 40 40 49 75 85 100 97 104 96 89 95 94 102 97 90 87 84 65 62 51 45 38 34 29 24 21 21 21 22 19 22 24 24 29 32 35 37 38 39 40 38
28 55 54 39 39 79 80 87 90 94 90 86 100 114 110 98 88 88 73 72 61 54 44 38 36 31 27 23 22 19 22 23 22 22 26 31 33 36 37 37 38 39 41
26 34 44 46 39 82 76 74 77 85 83 92 102 109 105 91 87 82 79 68 62 53 44 41 36 33 31 30 27 22 25 22 18 23 31 36 37 38 38 39 38 39 41
17 38 52 52 45 76 75 75 77 83 93 101 103 100 91 96 89 83 76 73 59 46 44 41 38 36 31 29 23 20 20 18 19 25 32 35 38 39 39 39 37 36 38
47 42 37 42 61 66 71 74 82 88 98 108 106 101 104 93 77 77 74 62 53 50 43 41 40 37 33 26 18 18 18 17 22 27 29 30 34 34 35 33 32 33 35
39 19 43 67 69 76 76 83 98 107 112 112 111 111 100 91 84 77 67 62 59 54 52 48 40 36 34 23 17 12 12 17 24 29 31 32 34 35 37 33 29 27 28
26 38 75 84 88 99 103 93 94 108 118 120 114 111 89 89 82 73 67 69 65 58 51 46 39 36 33 19 12 7 12 20 28 31 35 36 37 41 44 41 31 28 30
16 62 94 113 115 130 126 107 105 112 118 113 93 84 100 93 81 77 77 71 66 60 51 45 39 34 31 19 15 10 16 23 29 31 36 38 40 43 44 40 38 36 33
17 59 109 126 129 125 106 106 102 99 87 83 92 95 95 84 80 82 77 72 64 59 54 49 41 36 35 26 19 17 17 26 27 32 34 35 37 39 41 39 42 44 42
69 100 120 128 125 125 130 121 113 97 103 99 93 84 80 83 84 77 71 67 62 58 52 47 43 38 34 31 27 22 24 27 29 30 31 32 34 38 37 36 40 40 32
115 108 111 125 128 126 133 128 114 106 98 95 91 86 83 79 77 79 73 63 57 54 53 50 48 43 37 35 32 25 26 27 27 29 30 31 32 34 35 36 36 34 34
104 104 111 126 104 112 119 113 106 104 105 100 98 94 90 85 79 75 68 61 57 57 56 51 52 48 41 38 31 24 24 24 28 32 33 33 34 36 37 37 40 42 44
107 111 115 115 105 101 102 99 102 104 103 104 99 95 94 88 79 70 60 55 54 56 55 53 52 47 42 35 25 22 21 24 31 30 32 40 45 46 42 40 46 49 50
112 105 111 113 110 116 114 108 102 101 104 99 99 95 88 77 73 66 56 54 53 46 53 51 45 41 41 32 24 22 25 31 32 32 40 48 54 54 52 51 51 52 50
113 102 109 112 108 111 107 102 100 99 104 109 101 93 89 86 77 72 75 63 59 52 47 45 40 44 36 25 26 28 32 31 33 44 53 59 62 61 58 57 54 55 54
Wind_Direction_850mb
281 281 274 290 262 206 197 202 196 194 200 208 200 190 185 180 181 178 182 193 196 203 217 201 220 240 246 259 266 270 279 290 301 319 78 34 31 192 321 304 300 320 333
291 282 275 269 225 200 190 191 180 183 185 213 213 199 186 180 174 185 197 200 198 201 207 213 220 240 258 269 270 277 285 282 18 52 21 46 108 199 302 288 308 335 340
275 283 289 264 242 201 201 199 181 182 192 198 198 196 189 179 189 201 199 192 197 202 212 218 231 253 265 271 288 273 158 117 63 27 26 321 262 307 235 296 315 343 349
277 275 276 276 254 208 208 207 210 211 205 190 187 214 196 188 198 200 193 188 200 201 213 221 239 261 275 276 177 138 115 91 29 354 4 4 317 322 314 316 329 349 353
272 275 270 268 265 232 205 208 204 193 189 198 207 214 212 193 180 186 186 196 195 199 207 220 236 258 240 173 155 131 106 69 10 336 351 333 294 325 324 322 337 351 1
267 265 268 260 259 256 213 202 207 202 205 207 184 182 208 179 170 187 185 195 200 194 190 208 234 208 173 154 140 126 100 54 15 12 11 17 23 9 360 341 340 347 355
262 264 263 258 251 258 228 207 201 203 205 200 194 200 199 163 173 180 182 218 210 202 195 208 201 162 147 147 150 171 87 63 39 38 37 28 22 12 359 355 353 349 346
257 256 256 263 255 254 233 210 201 202 199 202 201 199 191 208 187 174 196 216 221 196 200 188 171 155 146 160 164 130 65 49 57 56 51 41 41 19 9 4 355 351 352
248 256 257 258 257 249 230 219 205 203 205 202 198 199 199 182 175 176 174 208 209 191 181 175 159 148 149 157 144 105 77 66 62 60 58 53 46 27 18 10 5 1 346
253 236 247 252 250 250 232 218 210 199 201 201 202 190 172 175 185 178 182 194 192 179 165 159 151 147 150 148 124 97 81 72 75 73 61 50 39 26 18 13 3 357 354
245 197 238 288 244 239 221 212 204 200 194 193 179 182 189 185 181 185 190 178 177 164 159 155 150 148 141 128 119 94 87 85 87 74 50 42 31 17 10 5 356 352 351
240 203 258 300 248 212 213 205 193 191 192 189 180 177 186 190 188 190 175 170 158 157 154 149 146 144 139 120 102 99 104 96 77 61 47 35 20 11 8 2 354 350 356
249 187 244 294 231 209 208 198 190 184 185 188 183 179 186 187 184 168 162 158 156 158 149 149 146 138 124 110 99 112 101 84 69 51 34 24 14 10 9 3 355 351 355
222 206 260 278 249 204 201 194 189 192 186 188 183 180 185 182 166 159 157 155 157 149 148 145 134 124 115 107 110 99 86 79 73 46 26 18 12 13 11 7 1 358 2
273 253 283 268 225 210 191 183 189 192 182 177 174 172 166 156 154 154 152 151 148 147 148 140 131 125 116 108 106 93 87 78 53 35 22 16 17 16 14 12 10 5 3
318 312 286 194 192 192 178 176 176 173 179 177 168 162 152 151 154 155 154 143 146 149 145 139 136 129 119 114 104 88 80 59 35 26 24 15 13 10 15 13 12 10 8
309 273 167 163 169 168 162 156 150 149 154 152 153 151 148 149 154 154 144 145 146 144 140 136 133 126 120 117 105 83 65 40 29 24 25 21 18 10 16 14 8 10 16
264 164 126 132 142 136 133 141 153 139 147 134 135 140 137 151 152 148 145 143 139 139 135 131 129 126 119 119 109 90 57 39 35 30 30 22 13 9 10 12 14 15 14
175 133 128 128 127 124 134 128 122 127 127 131 131 142 154 152 147 147 143 140 137 134 133 129 131 126 121 116 106 80 48 47 46 39 32 24 14 15 16 13 20 21 26
178 133 124 126 125 129 130 124 125 113 119 132 145 153 153 147 148 145 140 136 133 131 129 128 123 120 114 115 102 78 71 58 48 39 30 23 20 22 20 19 21 25 27
142 128 124 127 130 133 139 137 138 135 148 149 151 154 148 147 147 139 135 135 132 129 126 123 117 110 105 100 91 87 64 54 45 36 28 23 21 24 27 31 31 28 24
133 129 128 129 134 136 137 138 142 146 145 149 148 144 143 141 139 136 133 128 125 124 123 118 110 103 98 96 90 70 55 44 39 38 34 30 28 31 34 37 41 35 34
127 127 127 132 136 141 142 138 139 146 147 145 144 144 140 137 136 132 127 123 124 121 116 113 107 104 104 92 82 64 53 48 47 48 47 44 41 41 43 44 41 38 38
124 129 131 129 128 141 147 144 145 149 146 143 140 138 138 138 135 126 120 120 121 116 113 112 111 110 95 84 76 66 56 59 55 54 55 52 49 46 49 46 42 42 39
121 118 115 118 125 141 143 150 151 150 144 139 137 139 136 135 131 126 119 115 110 112 114 112 102 98 90 82 80 74 62 52 53 56 54 49 46 46 48 46 41 41 41
122 118 130 134 138 143 141 144 149 148 143 140 142 142 143 142 139 130 121 114 114 114 105 104 97 94 91 96 85 76 71 64 59 56 52 49 46 46 45 43 39 37 39